Moab, UT

5:52 PM MDT on October 22, 2019 (GMT -0600)
Canyonlands

Weather History for KCNY - August, 2019

Change the Weather History Date:

Wednesday, August 7, 2019

  Actual Average Record
Temperature  
Mean Temperature 82 °F 79 °F  
Max Temperature 94 °F 94 °F 107 °F (1952)
Min Temperature 70 °F 64 °F 48 °F (1932)
Degree Days  
Heating Degree Days 0 0  
Month to date heating degree days 0 0  
Since 1 June heating degree days 23 17  
Since 1 July heating degree days 0 0  
Cooling Degree Days 17 14  
Month to date cooling degree days 128 104  
Year to date cooling degree days 901 897  
Since 1 June cooling degree days 886 833  
Growing Degree Days 32 (Base 50)    
Moisture  
Dew Point 49 °F    
Average Humidity 39    
Maximum Humidity 61    
Minimum Humidity 17    
Precipitation  
Precipitation T in 0.03 in 0.61 in (1987)
Month to date precipitation 0.02 0.19  
Year to date precipitation 6.17 4.73  
Sea Level Pressure  
Sea Level Pressure 29.83 in    
Wind  
Wind Speed 9 mph (West)    
Max Wind Speed 25 mph    
Max Gust Speed 31 mph    
Visibility 10 miles    
Events      
T = Trace of Precipitation, MM = Missing Value Source: NWS Daily Summary

Daily Weather History Graph

Daily Weather History Graph

Search for Another Location

Airport or City:

Astronomy

Aug. 07, 2019 Rise Set
Actual Time 6:25 AM MDT 8:23 PM MDT
Civil Twilight 5:56 AM MDT 8:52 PM MDT
Nautical Twilight 5:20 AM MDT 9:27 PM MDT
Astronomical Twilight 4:42 AM MDT 10:05 PM MDT
Moon 1:56 PM MDT (8/7) 12:15 AM MDT (8/7)
Length of Visible Light 14h 56m
Length of Day
13h 57m
Waxing Crescent, 50% of the Moon is Illuminated
Aug 7
Waxing Crescent
Aug 15
Full
Aug 23
Last Quarter
Aug 30
New
Sep 5
First Quarter

Hourly Weather History & Observations

Time (MDT) Temp. Dew Point Humidity Pressure Visibility Wind Dir Wind Speed Gust Speed Precip Events Conditions
12:53 AM 79.0 °F 48.9 °F 35% 29.81 in 10.0 mi ENE 3.5 mph - N/A   Clear
1:53 AM 77.0 °F 51.1 °F 40% 29.83 in 10.0 mi NW 10.4 mph - N/A   Clear
2:53 AM 75.0 °F 55.9 °F 51% 29.81 in 10.0 mi South 6.9 mph - N/A   Clear
3:53 AM 75.9 °F 54.0 °F 46% 29.82 in 10.0 mi NE 3.5 mph - 0.00 in   Clear
4:53 AM 73.9 °F 51.1 °F 45% 29.82 in 10.0 mi Calm Calm - N/A   Clear
5:53 AM 70.0 °F 55.0 °F 59% 29.85 in 10.0 mi WSW 4.6 mph - N/A   Clear
6:53 AM 72.0 °F 54.0 °F 53% 29.86 in 10.0 mi Calm Calm - N/A   Clear
7:53 AM 78.1 °F 52.0 °F 40% 29.86 in 10.0 mi SSE 4.6 mph - N/A   Clear
8:53 AM 82.0 °F 52.0 °F 35% 29.86 in 10.0 mi SE 8.1 mph - N/A   Scattered Clouds
9:53 AM 84.9 °F 51.1 °F 31% 29.86 in 10.0 mi SSE 4.6 mph - N/A   Clear
10:53 AM 87.1 °F 50.0 °F 28% 29.85 in 10.0 mi SW 5.8 mph - N/A   Clear
11:53 AM 88.0 °F 48.9 °F 26% 29.85 in 10.0 mi South 5.8 mph - N/A   Clear
12:53 PM 90.0 °F 46.9 °F 23% 29.83 in 10.0 mi WSW 11.5 mph - N/A   Clear
1:53 PM 91.0 °F 45.0 °F 20% 29.83 in 10.0 mi WSW 15.0 mph 24.2 mph N/A   Clear
2:53 PM 91.0 °F 45.0 °F 20% 29.83 in 10.0 mi West 15.0 mph - N/A   Clear
3:53 PM 93.0 °F 43.0 °F 18% 29.80 in 10.0 mi WNW 13.8 mph 20.7 mph N/A   Clear
4:53 PM 91.9 °F 45.0 °F 20% 29.79 in 10.0 mi WNW 11.5 mph 18.4 mph N/A   Mostly Cloudy
5:53 PM 90.0 °F 45.0 °F 21% 29.79 in 10.0 mi NW 17.3 mph 24.2 mph N/A   Partly Cloudy
6:53 PM 87.1 °F 45.0 °F 23% 29.79 in 10.0 mi NW 20.7 mph 29.9 mph N/A   Clear
7:53 PM 84.0 °F 46.0 °F 26% 29.80 in 10.0 mi NW 16.1 mph - N/A   Partly Cloudy
8:53 PM 82.0 °F 46.0 °F 28% 29.82 in 10.0 mi NW 5.8 mph - N/A   Overcast
9:53 PM 82.0 °F 48.9 °F 31% 29.83 in 10.0 mi NE 12.7 mph - 0.00 in   Overcast
10:53 PM 80.1 °F 50.0 °F 35% 29.84 in 10.0 mi North 10.4 mph - 0.00 in   Overcast
11:53 PM 79.0 °F 50.0 °F 36% 29.84 in 10.0 mi NE 5.8 mph - N/A   Overcast